Location: Trois-Rivi�res
(46.3500°N, 72.5500°W)
Time: 23:19:31
(UTC-05:00)

Envisat - Pass Details

Date: 15 October 2017
Orbit: 764 x 766 km, 98.2° (Epoch: 14 December)

Event Time Altitude Azimuth Distance (km) Brightness Sun altitude
Exits shadow 19:43:07 32° 87° (E) 1,293 3.6 -18.0°
Maximum altitude 19:43:59 34° 66° (ENE) 1,239 3.6 -18.1°
Drops below altitude 10° 19:48:33 10° 3° (N) 2,316 5.5 -18.9°
Sets 19:51:02 0° 354° (N) 3,247 6.4 -19.4°
